Date String (YYYY-MM-DD hh:mm:ss) UTC,Instrument flags,Ambient pressure (hPa),Sample flow (lpm),Bypass flow (lpm),Sample temperature (°C),Ambient temperature (°C),ASC tube jacket temperature (°C),LED temperature (°C),Box temperature (°C),Sample RH (%),Span deviation,Mass concentration (μg/m³),Mass concentration (μg/m³),Mass concentration (μg/m³)
DateTimeUTC,F1_M11,P_M11,Q1_M11,Q2_M11,T1_M11,T2_M11,T3_M11,T4_M11,T5_M11,U1_M11,ZSPAN_M11,X2_M11,X0_M11,X1_M11
2022-10-05 05:00:00,,0832.0,5.02,0.00,29.0,27.6,00.0,37.7,30.9,24.3,0000.0,0006.07,0009.30,0005.76
2022-10-05 05:01:00,,0832.0,4.99,0.00,29.0,27.6,00.0,37.7,30.9,24.3,0000.0,0006.05,0009.47,0005.74
2022-10-05 05:02:00,,0832.0,5.00,0.00,29.0,27.7,00.0,37.7,30.9,24.2,0000.0,0006.04,0009.92,0005.73
2022-10-05 05:03:00,,0832.0,5.00,0.00,29.1,27.7,00.0,37.7,30.9,24.3,0000.0,0006.03,0009.88,0005.72
2022-10-05 05:04:00,,0832.0,4.99,0.00,29.1,27.6,00.0,37.7,30.9,24.2,0000.0,0006.04,0009.97,0005.72
2022-10-05 05:05:00,,0832.0,5.00,0.00,29.1,27.6,00.0,37.7,30.9,24.2,0000.0,0006.03,0009.96,0005.70
2022-10-05 05:06:00,,0831.9,5.02,0.00,29.1,27.7,00.0,37.7,30.9,24.1,0000.0,0006.00,0009.94,0005.69
2022-10-05 05:07:00,,0831.9,4.99,0.00,29.1,27.6,00.0,37.8,30.9,24.1,0000.0,0006.01,0009.96,0005.68
2022-10-05 05:08:00,,0831.9,5.00,0.00,29.1,27.6,00.0,37.7,30.9,24.2,0000.0,0006.02,0010.01,0005.68
2022-10-05 05:09:00,,0831.9,5.01,0.00,29.1,27.6,00.0,37.7,30.9,24.2,0000.0,0006.02,0010.06,0005.67
2022-10-05 05:10:00,,0831.9,4.99,0.00,29.1,27.7,00.0,37.7,30.9,24.1,0000.0,0006.02,0010.03,0005.66
2022-10-05 05:11:00,,0831.9,5.01,0.00,29.1,27.7,00.0,37.8,30.9,24.1,0000.0,0006.00,0009.62,0005.65
2022-10-05 05:12:00,,0831.9,5.00,0.00,29.1,27.6,00.0,37.8,30.9,24.1,0000.0,0005.97,0009.27,0005.64
2022-10-05 05:13:00,,0831.9,5.00,0.00,29.1,27.6,00.0,37.7,30.9,24.0,0000.0,0005.95,0008.83,0005.62
2022-10-05 05:14:00,,0831.9,5.01,0.00,29.1,27.6,00.0,37.8,30.9,24.1,0000.0,0005.95,0008.90,0005.62
2022-10-05 05:15:00,,0831.9,4.99,0.00,29.1,27.6,00.0,37.8,30.9,24.1,0000.0,0005.94,0008.89,0005.61
2022-10-05 05:16:00,,0831.9,5.01,0.00,29.1,27.6,00.0,37.8,30.9,24.1,0000.0,0005.91,0008.85,0005.59
2022-10-05 05:17:00,,0832.0,5.00,0.00,29.1,27.6,00.0,37.8,31.0,24.1,0000.0,0005.92,0008.90,0005.58
2022-10-05 05:18:00,,0831.9,5.00,0.00,29.1,27.6,00.0,37.8,30.9,24.0,0000.0,0005.89,0008.88,0005.55
2022-10-05 05:19:00,,0832.0,5.01,0.00,29.1,27.6,00.0,37.8,30.9,24.0,0000.0,0005.86,0008.85,0005.52
2022-10-05 05:20:00,,0832.0,4.99,0.00,29.1,27.6,00.0,37.8,30.9,23.9,0000.0,0005.82,0008.80,0005.49
2022-10-05 05:21:00,,0832.0,5.01,0.00,29.1,27.6,00.0,37.8,30.9,23.9,0000.0,0005.80,0008.80,0005.46
2022-10-05 05:22:00,,0831.9,4.99,0.00,29.1,27.6,00.0,37.8,30.9,23.9,0000.0,0005.76,0008.75,0005.44
2022-10-05 05:23:00,,0832.0,5.00,0.00,29.1,27.6,00.0,37.8,30.9,23.7,0000.0,0005.74,0008.74,0005.42
2022-10-05 05:24:00,,0832.0,5.00,0.00,29.1,27.6,00.0,37.8,30.9,23.6,0000.0,0005.70,0008.68,0005.39
2022-10-05 05:25:00,,0832.0,5.00,0.00,29.1,27.6,00.0,37.8,30.9,23.6,0000.0,0005.63,0008.52,0005.35
2022-10-05 05:26:00,,0832.0,4.99,0.00,29.1,27.6,00.0,37.8,30.9,23.5,0000.0,0005.59,0009.01,0005.31
2022-10-05 05:27:00,,0832.0,5.01,0.00,29.1,27.6,00.0,37.8,30.9,23.4,0000.0,0005.57,0008.99,0005.29
2022-10-05 05:28:00,,0832.0,5.00,0.00,29.1,27.6,00.0,37.8,30.9,23.6,0000.0,0005.53,0008.90,0005.26
2022-10-05 05:29:00,,0831.9,4.98,0.00,29.1,27.6,00.0,37.8,31.0,23.6,0000.0,0005.52,0008.85,0005.25
2022-10-05 05:30:00,,0832.0,5.01,0.00,29.1,27.6,00.0,37.8,30.9,23.5,0000.0,0005.50,0008.80,0005.24
2022-10-05 05:31:00,,0832.0,5.00,0.00,29.1,27.6,00.0,37.8,30.9,23.5,0000.0,0005.49,0008.73,0005.24
2022-10-05 05:32:00,,0832.0,4.99,0.00,29.1,27.6,00.0,37.8,30.9,23.4,0000.0,0005.48,0008.71,0005.24
2022-10-05 05:33:00,,0832.0,5.00,0.00,29.1,27.6,00.0,37.8,30.9,23.3,0000.0,0005.48,0008.73,0005.23
2022-10-05 05:34:00,,0831.9,4.99,0.00,29.1,27.6,00.0,37.8,31.0,23.4,0000.0,0005.46,0008.69,0005.21
2022-10-05 05:35:00,,0832.0,5.01,0.00,29.1,27.6,00.0,37.8,31.0,23.4,0000.0,0005.46,0008.76,0005.21
2022-10-05 05:36:00,,0831.9,4.98,0.00,29.1,27.6,00.0,37.8,31.0,23.4,0000.0,0005.49,0008.81,0005.22
2022-10-05 05:37:00,,0832.0,5.01,0.00,29.1,27.6,00.0,37.8,31.0,23.4,0000.0,0005.46,0008.18,0005.22
2022-10-05 05:38:00,,0832.0,4.99,0.00,29.1,27.6,00.0,37.8,31.0,23.3,0000.0,0005.45,0008.46,0005.20
2022-10-05 05:39:00,,0832.0,5.00,0.00,29.1,27.6,00.0,37.8,30.9,23.2,0000.0,0005.45,0008.47,0005.20
2022-10-05 05:40:00,,0831.9,5.01,0.00,29.1,27.6,00.0,37.8,30.9,23.2,0000.0,0005.44,0008.51,0005.19
2022-10-05 05:41:00,,0831.9,5.00,0.00,29.1,27.6,00.0,37.8,31.0,23.1,0000.0,0005.44,0008.59,0005.18
2022-10-05 05:42:00,,0831.9,4.99,0.00,29.1,27.6,00.0,37.8,30.9,23.0,0000.0,0005.41,0008.53,0005.16
2022-10-05 05:43:00,,0832.0,5.00,0.00,29.1,27.6,00.0,37.8,30.9,23.0,0000.0,0005.38,0008.52,0005.13
2022-10-05 05:44:00,,0832.0,5.01,0.00,29.1,27.6,00.0,37.8,30.9,23.0,0000.0,0005.35,0008.47,0005.11
2022-10-05 05:45:00,,0831.9,4.99,0.00,29.1,27.6,00.0,37.8,30.9,23.1,0000.0,0005.35,0008.51,0005.09
2022-10-05 05:46:00,,0832.0,5.01,0.00,29.1,27.6,00.0,37.8,30.9,23.1,0000.0,0005.34,0008.56,0005.08
2022-10-05 05:47:00,,0832.0,5.01,0.00,29.1,27.6,00.0,37.8,30.9,23.0,0000.0,0005.35,0008.56,0005.08
2022-10-05 05:48:00,,0832.0,4.98,0.00,29.1,27.6,00.0,37.8,31.0,23.0,0000.0,0005.35,0008.60,0005.07
2022-10-05 05:49:00,,0832.0,5.01,0.00,29.1,27.6,00.0,37.8,30.9,22.9,0000.0,0005.34,0008.34,0005.06
2022-10-05 05:50:00,,0832.0,5.00,0.00,29.1,27.6,00.0,37.8,30.9,22.9,0000.0,0005.34,0008.27,0005.05
2022-10-05 05:51:00,,0832.0,4.99,0.00,29.1,27.6,00.0,37.8,30.9,22.9,0000.0,0005.33,0008.22,0005.04
2022-10-05 05:52:00,,0832.0,5.01,0.00,29.1,27.6,00.0,37.8,30.9,22.9,0000.0,0005.30,0008.10,0005.03
2022-10-05 05:53:00,,0832.0,4.99,0.00,29.1,27.6,00.0,37.8,31.0,22.8,0000.0,0005.30,0008.09,0005.03
2022-10-05 05:54:00,,0832.0,5.01,0.00,29.1,27.6,00.0,37.8,30.9,22.9,0000.0,0005.28,0008.05,0005.02
2022-10-05 05:55:00,,0832.0,5.00,0.00,29.1,27.6,00.0,37.8,30.9,22.8,0000.0,0005.28,0008.02,0005.03
2022-10-05 05:56:00,,0831.9,4.99,0.00,29.1,27.6,00.0,37.8,30.9,22.8,0000.0,0005.28,0007.98,0005.04
2022-10-05 05:57:00,,0832.0,5.01,0.00,29.1,27.6,00.0,37.8,30.9,22.8,0000.0,0005.27,0007.87,0005.04
2022-10-05 05:58:00,,0832.0,5.00,0.00,29.1,27.6,00.0,37.8,31.0,22.8,0000.0,0005.25,0007.87,0005.04
2022-10-05 05:59:00,,0832.0,4.99,0.00,29.1,27.6,00.0,37.8,31.0,22.8,0000.0,0005.23,0007.85,0005.04
